Notices

What's New in latest Release from April 7th, 2021:

- Updated Glossary, including Speed of Maximum Gust, and Total Hourly Precipitation

- Updated national and regional climate services offices contacts and prices information

- Addition of station inventory lists for 1981-2010, 1971-2000, and 1961-1990 Normals.

If you haven't already, please take our survey and provide feedback about our website: https://eccc.sondage-survey.ca/f/LanguageSelection.aspx?s=442ca660-fcf1-47c0-95a9-59707d6fd709

Hourly Data Report for October 30, 2019

QUALICUM BEACH AIRPORT
BRITISH COLUMBIA
Current Station Operator: ECCC - MSC

49°20'14.000" N
124°23'38.000" W
58.20 m
1026562
71766
VOQ

Download Data

Hourly Data (October 2019)
Hourly Data Report for October 30, 2019
TIME
LST
Temp Definition
°C
Dew Point Definition
°C
Rel Hum Definition
%
Precip. Amount Definition
mm

Wind Dir Definition
10's deg

Wind Spd Definition
km/h
Visibility Definition
km
Stn Press Definition
kPa
Hmdx Definition


Wind Chill Definition


Weather Definition


00:00 -1.7 -2.8 92 0.0 25 1   102.46   -2 LegendNANA
01:00 -1.6 -2.8 91 0.0 0 1   102.45   -2 LegendNANA
02:00 -1.7 -3.0 91 0.0 25 2   102.44   -2 LegendNANA
03:00 -1.8 -3.2 90 0.0 24 2   102.42   -3 LegendNANA
04:00 -2.1 -3.4 91 0.0   0   102.38     LegendNANA
05:00 -2.3 -3.4 92 0.0 26 1   102.36   -3 LegendNANA
06:00 -2.5 -3.4 93 0.0 25 2   102.37   -3 LegendNANA
07:00 -2.2 -3.3 92 0.0 25 2   102.34   -3 LegendNANA
08:00 -0.7 -2.9 85 0.0 26 1   102.35   -1 LegendNANA
09:00 2.3 -1.1 78 0.0 25 1   102.36     LegendNANA
10:00 6.1 -0.4 63 0.0 31 5   102.35     LegendNANA
11:00 7.9 1.2 62 0.0 27 2   102.31     LegendNANA
12:00 7.8 2.8 71 0.0 34 6   102.27     LegendNANA
13:00 9.0 2.2 62 0.0 7 3   102.16     LegendNANA
14:00 8.9 0.6 56 0.0 1 5   102.13     LegendNANA
15:00 8.9 0.6 56 0.0 1 5   102.09     LegendNANA
16:00 8.1 0.6 59 0.0 36 4   102.07     LegendNANA
17:00 5.3 1.1 74 0.0 26 2   102.04     LegendNANA
18:00 3.6 1.2 85 0.0   0   102.04     LegendNANA
19:00 2.7 1.2 90 0.0 26 2   102.02     LegendNANA
20:00 1.7 0.5 92 0.0 25 1   102.01     LegendNANA
21:00 1.7 0.6 93 0.0 26 2   102.05     LegendNANA
22:00 1.4 0.6 94 0.0 26 2   102.04     LegendNANA
23:00 1.1 0.4 95 0.0 24 3   102.02     LegendNANA

Notes on Data Quality.

Legend

  • E = Estimated
  • M = Missing
  • NA = Not Available*
  • [empty] = Indicates an unobserved value
Date modified: